Home > Weather > Warren > Past weeks

Flag for U.S.A. Weather for the Past 2 Weeks in Warren, Michigan, U.S.A.

Now
17 °F

Overcast.


Feels Like: 4 °F
Forecast: 11 / 24 °F
Wind: 12 mph from Southwest

Location: Detroit City Airport

Current Time: Feb 12, 2016 at 8:27:15 AM

Latest Report: Feb 12, 2016 at 7:53 AM


Visibility: 10 mi

Pressure: 30.11 "Hg

Humidity: 64%

Dew point: 7 °F

Location of WarrenLocation

Historic Weather in Warren — Graph

°F

Warren Temperature Yesterday

Maximum temperature yesterday: 20 °F (at 3:53 PM)
Minimum temperature yesterday: 10 °F (at 6:53 AM)
Average temperature yesterday: 15 °F

High & Low Weather Summary for the Past Weeks

 TemperatureHumidityPressure
High56 °F (Feb 3, 10:53 AM)96% (Feb 9, 7:53 AM)30.39 "Hg (Feb 9, 7:53 AM)
Low10 °F (Feb 11, 6:53 AM)43% (Jan 29, 3:53 PM)29.46 "Hg (Feb 3, 5:53 AM)
Average33 °F70%29.90 "Hg
* Reported Jan 28 6:53 AM — Feb 12 6:53 AM, Warren, Weather by CustomWeather, © 2016

Note: Actual official high and low records may vary slightly from our data, if they occured in-between our weather recording intervals... More about our weather records

Advertising

Warren Weather History for the Previous 24 Hours

 ConditionsComfort  
Time TempWeatherWind HumidityBarometerVisibility
6:53 AM
Fri, Feb 12
16 °FOvercast.12 mph65%30.14 "Hg10 mi
5:53 AM13 °FPassing clouds.8 mph70%30.14 "Hg10 mi
4:53 AM13 °FClear.8 mph70%30.16 "Hg10 mi
3:53 AM13 °FClear.8 mph74%30.18 "Hg10 mi
2:53 AM14 °FClear.5 mph73%30.21 "Hg10 mi
1:53 AM15 °FClear.7 mph70%30.23 "Hg10 mi
12:53 AM15 °FClear.8 mph70%30.25 "Hg10 mi
11:53 PM
Thu, Feb 11
16 °FClear.8 mph65%30.26 "Hg10 mi
10:53 PM16 °FClear.9 mph59%30.26 "Hg10 mi
9:53 PM14 °FClear.6 mph58%30.27 "Hg10 mi
8:53 PM14 °FClear.5 mph61%30.27 "Hg10 mi
7:53 PM14 °FClear.3 mph61%30.25 "Hg10 mi
6:53 PM15 °FClear.No wind53%30.28 "Hg10 mi
5:53 PM19 °FSunny.6 mph45%30.27 "Hg10 mi
4:53 PM20 °FPassing clouds.9 mph43%30.27 "Hg10 mi
3:53 PM20 °FSunny.9 mph43%30.25 "Hg10 mi
2:53 PM18 °FPassing clouds.8 mph45%30.25 "Hg10 mi
1:53 PM19 °FPartly sunny.12 mph45%30.24 "Hg10 mi
12:53 PM18 °FOvercast.9 mph49%30.24 "Hg10 mi
11:53 AM17 °FPartly sunny.13 mph54%30.24 "Hg10 mi
10:53 AM16 °FPartly sunny.9 mph59%30.23 "Hg10 mi
9:53 AM14 °FPartly sunny.10 mph67%30.20 "Hg10 mi
8:53 AM13 °FScattered clouds.10 mph67%30.19 "Hg10 mi
Weather by CustomWeather, © 2016

See weather overviewHow to use our weather pages